sat.trackr.live / text

‹ back to catalog

STARLINK-34769

NORAD 65094 · 2025-167S

PAYLOAD ACTIVE UNKNOWN

§ Identity

Operator
Country
US
Launch date
2025-08-04
Launch site
AFETR
Launch vehicle
Mass (kg)
RCS (m²)

Purposes: comms

External: N2YO · Heavens-Above · Gunter

§ Orbital elements

Epoch: 2026-09-20T02:23:57.157440Z

Period
93.85 min
Inclination
53.1574°
Eccentricity
0.0000567
Mean motion
15.34415305 rev/d
Perigee alt
462.3 km
Apogee alt
463.0 km
Semi-major
6,840.8 km
B*
6.1015e-4
RAAN
195.9186°
Arg perigee
82.2533°
Mean anomaly
277.8534°
Rev number
6,334

§ Raw data

STARLINK-347691 65094U 25167S   26263.09996710  .00020305  00000+0  61015-3 0  99902 65094  53.1574 195.9186 0000567  82.2533 277.8534 15.34415305 63344

JSON: /api/v1/satellites/65094 · /tle

For live sub-satellite position, see the globe view (requires WebGL).

§ Visibility from observer

Set your observer location to see the next 7 days of passes ≥ 10°. The values pass through the URL so the page stays shareable.

No JS? Fill the form by hand. The geolocation button needs JavaScript.